CW5139 Weather Reports


time (UTC)temp
C
wind
direction
speed
KPH
gust
KPH
rain 1hr
cm
rain 24hr
cm
rain mn
cm
humidity
%
barometer
mb
20200407043827 13 297 0.0 0.0 0.00 0.00 0.00 80 1014.9
20200407043334 13 297 0.0 0.0 0.00 0.00 0.00 79 1015.0
20200407042823 13 297 0.0 0.0 0.00 0.00 0.00 78 1015.0
20200407042332 13 297 0.0 0.0 0.00 0.00 0.00 77 1015.0
20200407041819 13 297 0.0 0.0 0.00 0.00 0.00 77 1015.0
20200407041332 13 297 0.0 0.0 0.00 0.00 0.00 77 1015.0
20200407040818 13 297 0.0 0.0 0.00 0.00 0.00 77 1014.9
20200407040323 13 297 0.0 0.0 0.00 0.00 0.00 78 1014.9
20200407035833 13 297 0.0 0.0 0.00 0.00 0.00 78 1014.9
20200407035324 13 297 0.0 0.0 0.00 0.00 0.00 78 1014.9
20200407034831 14 297 0.0 0.0 0.00 0.00 0.00 78 1015.0
20200407034320 14 297 0.0 0.0 0.00 0.00 0.00 78 1015.0
20200407033826 14 297 0.0 0.0 0.00 0.00 0.00 77 1015.1
20200407033337 14 297 0.0 0.0 0.00 0.00 0.00 76 1015.2
20200407032828 15 297 0.0 0.0 0.00 0.00 0.00 76 1015.2
20200407032337 15 297 0.0 0.0 0.00 0.00 0.00 76 1015.1
20200407031823 15 297 0.0 0.0 0.00 0.00 0.00 76 1015.1
20200407031332 15 297 0.0 0.0 0.00 0.00 0.00 76 1015.1
20200407030819 15 297 0.0 0.0 0.00 0.00 0.00 75 1015.0
20200407030328 15 297 0.0 0.0 0.00 0.00 0.00 75 1015.0
20200407025836 15 297 0.0 0.0 0.00 0.00 0.00 74 1015.0
20200407025325 15 297 0.0 0.0 0.00 0.00 0.00 73 1015.0
20200407024834 15 297 0.0 0.0 0.00 0.00 0.00 72 1015.1
20200407024327 15 297 0.0 0.0 0.00 0.00 0.00 72 1015.2
20200407023833 16 297 0.0 1.6 0.00 0.00 0.00 71 1015.2
20200407023322 16 297 0.0 6.4 0.00 0.00 0.00 69 1015.3
20200407022829 16 297 0.0 6.4 0.00 0.00 0.00 68 1015.4
20200407022337 16 297 0.0 0.0 0.00 0.00 0.00 68 1015.4
20200407021823 16 297 0.0 0.0 0.00 0.00 0.00 68 1015.5
20200407021333 16 298 0.0 0.0 0.00 0.00 0.00 68 1015.4
20200407020818 16 298 0.0 0.0 0.00 0.00 0.00 68 1015.4
20200407020327 16 298 0.0 0.0 0.00 0.00 0.00 68 1015.4
20200407015820 16 298 0.0 1.6 0.00 0.00 0.00 67 1015.3
20200407015327 16 298 0.0 1.6 0.00 0.00 0.00 67 1015.4
20200407014818 16 298 0.0 0.0 0.00 0.00 0.00 66 1015.4
20200407014326 16 298 0.0 0.0 0.00 0.00 0.00 66 1015.4
20200407013835 16 298 0.0 0.0 0.00 0.00 0.00 66 1015.3
20200407013325 16 298 0.0 0.0 0.00 0.00 0.00 65 1015.3
20200407012831 16 298 0.0 0.0 0.00 0.00 0.00 65 1015.1
20200407012321 16 298 0.0 0.0 0.00 0.00 0.00 64 1015.3
20200407011826 16 299 0.0 0.0 0.00 0.00 0.00 64 1015.3
20200407011321 16 298 0.0 0.0 0.00 0.00 0.00 63 1015.3
20200407010828 16 299 0.0 0.0 0.00 0.00 0.00 63 1015.2
20200407010316 16 299 0.0 0.0 0.00 0.00 0.00 62 1015.2
20200407005826 16 299 0.0 0.0 0.00 0.00 0.00 61 1015.2
20200407005315 16 299 0.0 0.0 0.00 0.00 0.00 61 1015.2
20200407004824 16 299 0.0 0.0 0.00 0.00 0.00 60 1015.2
20200407004332 16 299 0.0 0.0 0.00 0.00 0.00 59 1015.3
20200407003821 17 299 0.0 0.0 0.00 0.00 0.00 59 1015.2
20200407003330 17 299 0.0 0.0 0.00 0.00 0.00 58 1015.2
20200407002820 17 299 0.0 0.0 0.00 0.00 0.00 57 1015.2
20200407002332 17 299 0.0 0.0 0.00 0.00 0.00 56 1015.2
20200407001819 17 299 0.0 0.0 0.00 0.00 0.00 56 1015.2
20200407001328 17 299 0.0 0.0 0.00 0.00 0.00 55 1015.2
20200407000834 17 299 0.0 0.0 0.00 0.00 0.00 55 1015.2
20200407000325 17 299 0.0 0.0 0.00 0.00 0.00 55 1015.1
20200406235835 17 299 0.0 4.8 0.00 0.00 0.00 54 1015.1
20200406235324 17 299 1.6 6.4 0.00 0.00 0.00 54 1015.1
20200406234833 17 299 3.2 6.4 0.00 0.00 0.00 53 1015.1
20200406234327 18 299 4.8 6.4 0.00 0.00 0.00 53 1015.0
20200406233837 18 301 0.0 8.0 0.00 0.00 0.00 53 1015.0
20200406233324 18 301 1.6 11.3 0.00 0.00 0.00 53 1015.1
20200406232832 18 298 6.4 11.3 0.00 0.00 0.00 52 1015.1
20200406232325 18 285 1.6 11.3 0.00 0.00 0.00 52 1015.1
20200406231833 18 293 4.8 11.3 0.00 0.00 0.00 52 1015.0
20200406231323 18 282 3.2 8.0 0.00 0.00 0.00 51 1014.9
20200406230830 18 279 6.4 8.0 0.00 0.00 0.00 51 1014.9
20200406230318 18 270 3.2 6.4 0.00 0.00 0.00 50 1014.9
20200406225829 18 208 0.0 9.7 0.00 0.00 0.00 50 1014.9
20200406225320 18 208 3.2 9.7 0.00 0.00 0.00 50 1014.9
20200406224826 18 303 4.8 9.7 0.00 0.00 0.00 49 1014.9
20200406224318 18 310 1.6 8.0 0.00 0.00 0.00 49 1014.8
20200406223824 18 310 4.8 9.7 0.00 0.00 0.00 49 1014.9
20200406223332 18 313 6.4 11.3 0.00 0.00 0.00 50 1014.9
20200406222822 18 189 6.4 11.3 0.00 0.00 0.00 50 1015.0
20200406222330 18 179 6.4 11.3 0.00 0.00 0.00 49 1015.0
20200406221818 18 202 4.8 12.9 0.00 0.00 0.00 49 1015.0
20200406221331 18 213 3.2 9.7 0.00 0.00 0.00 49 1015.1
20200406220821 18 260 4.8 12.9 0.00 0.00 0.00 49 1015.1
20200406220331 18 303 6.4 12.9 0.00 0.00 0.00 49 1015.2
20200406215837 18 185 4.8 12.9 0.00 0.00 0.00 49 1015.2
20200406215326 18 244 6.4 12.9 0.00 0.00 0.00 48 1015.3
20200406214836 18 206 3.2 11.3 0.00 0.00 0.00 48 1015.4
20200406214325 18 217 6.4 14.5 0.00 0.00 0.00 49 1015.4
20200406213832 19 244 4.8 14.5 0.00 0.00 0.00 48 1015.4
20200406213322 19 235 4.8 17.7 0.00 0.00 0.00 47 1015.5
20200406212834 19 193 9.7 17.7 0.00 0.00 0.00 46 1015.5
20200406212322 19 233 6.4 14.5 0.00 0.00 0.00 48 1015.5
20200406211832 19 201 4.8 17.7 0.00 0.00 0.00 48 1015.4
20200406211320 19 180 6.4 20.9 0.00 0.00 0.00 47 1015.6
20200406210827 19 268 11.3 20.9 0.00 0.00 0.00 46 1015.6
20200406210315 19 247 9.7 16.1 0.00 0.00 0.00 46 1015.7
20200406205825 19 252 6.4 16.1 0.00 0.00 0.00 48 1015.7
20200406205333 19 197 4.8 14.5 0.00 0.00 0.00 49 1015.8
20200406204823 19 206 8.0 17.7 0.00 0.00 0.00 48 1015.8
20200406204319 19 199 8.0 17.7 0.00 0.00 0.00 45 1015.8
20200406203827 20 252 6.4 16.1 0.00 0.00 0.00 46 1015.8
20200406203316 20 199 6.4 11.3 0.00 0.00 0.00 45 1015.9
20200406202826 20 259 4.8 12.9 0.00 0.00 0.00 43 1015.9
20200406202336 20 248 8.0 12.9 0.00 0.00 0.00 43 1015.9
20200406201824 20 223 4.8 12.9 0.00 0.00 0.00 42 1016.0
20200406201334 20 6 0.0 4.8 0.00 0.00 0.00 37 1016.0
20200406200820 20 13 1.6 8.0 0.00 0.00 0.00 34 1016.0
20200406200327 20 356 3.2 8.0 0.00 0.00 0.00 34 1016.1
20200406195821 20 62 1.6 6.4 0.00 0.00 0.00 36 1016.2
20200406195330 20 126 1.6 9.7 0.00 0.00 0.00 37 1016.3
20200406194817 20 102 3.2 9.7 0.00 0.00 0.00 35 1016.3
20200406194326 19 87 1.6 8.0 0.00 0.00 0.00 36 1016.3
20200406193833 19 77 4.8 9.7 0.00 0.00 0.00 35 1016.3
20200406193322 19 169 0.0 9.7 0.00 0.00 0.00 35 1016.4
20200406192828 19 202 3.2 9.7 0.00 0.00 0.00 34 1016.5
20200406192337 19 75 0.0 6.4 0.00 0.00 0.00 34 1016.6
20200406191825 19 57 1.6 6.4 0.00 0.00 0.00 32 1016.7
20200406191337 19 104 0.0 4.8 0.00 0.00 0.00 33 1016.8
20200406190824 18 104 1.6 9.7 0.00 0.00 0.00 32 1017.1
20200406190332 18 122 1.6 11.3 0.00 0.00 0.00 31 1017.1
20200406185818 18 144 4.8 11.3 0.00 0.00 0.00 31 1017.2
20200406185327 18 18 4.8 6.4 0.00 0.00 0.00 31 1017.2
20200406184833 18 93 1.6 12.9 0.00 0.00 0.00 30 1017.4
20200406184325 18 71 6.4 12.9 0.00 0.00 0.00 31 1017.4
20200406183832 18 132 3.2 9.7 0.00 0.00 0.00 31 1017.5
20200406183320 17 53 4.8 9.7 0.00 0.00 0.00 32 1017.6
20200406182828 18 356 3.2 8.0 0.00 0.00 0.00 32 1017.6
20200406182320 17 123 0.0 6.4 0.00 0.00 0.00 30 1017.7
20200406181827 18 62 3.2 6.4 0.00 0.00 0.00 33 1017.7
20200406181337 17 104 0.0 6.4 0.00 0.00 0.00 31 1017.8
20200406180824 17 111 1.6 8.0 0.00 0.00 0.00 30 1017.9
20200406180335 17 85 0.0 11.3 0.00 0.00 0.00 34 1018.0
20200406175823 17 84 4.8 12.9 0.00 0.00 0.00 33 1018.0
20200406175332 17 50 0.0 8.0 0.00 0.00 0.00 33 1018.1
20200406174819 17 104 1.6 6.4 0.00 0.00 0.00 34 1018.1
20200406174332 16 220 0.0 11.3 0.00 0.00 0.00 37 1018.2
20200406173838 16 220 3.2 11.3 0.00 0.00 0.00 37 1018.3
20200406173327 16 176 3.2 11.3 0.00 0.00 0.00 36 1018.4
20200406172833 16 131 1.6 8.0 0.00 0.00 0.00 35 1018.5
20200406172325 16 137 3.2 8.0 0.00 0.00 0.00 34 1018.5
20200406171833 16 102 0.0 8.0 0.00 0.00 0.00 35 1018.6
20200406171320 16 102 3.2 12.9 0.00 0.00 0.00 35 1018.6
20200406170828 16 62 4.8 12.9 0.00 0.00 0.00 33 1018.7
20200406170333 15 69 1.6 12.9 0.00 0.00 0.00 32 1018.8
20200406165827 15 216 4.8 12.9 0.00 0.00 0.00 37 1018.9
20200406165316 15 126 1.6 14.5 0.00 0.00 0.00 36 1018.9
20200406164825 14 98 3.2 14.5 0.00 0.00 0.00 36 1019.1
20200406164336 15 64 6.4 12.9 0.00 0.00 0.00 38 1019.2
20200406163825 15 127 4.8 14.5 0.00 0.00 0.00 36 1019.3
20200406163335 15 136 6.4 11.3 0.00 0.00 0.00 38 1019.4
20200406162825 15 110 1.6 11.3 0.00 0.00 0.00 37 1019.5
20200406162334 14 116 0.0 14.5 0.00 0.00 0.00 40 1019.6
20200406161820 14 139 1.6 12.9 0.00 0.00 0.00 41 1019.7
20200406161332 14 115 6.4 12.9 0.00 0.00 0.00 40 1019.8
20200406160819 14 94 0.0 0.0 0.00 0.00 0.00 49 1019.9
20200406160328 13 91 0.0 8.0 0.00 0.00 0.00 52 1020.0
20200406155838 12 94 0.0 8.0 0.00 0.00 0.00 54 1020.1
20200406155327 12 192 4.8 8.0 0.00 0.00 0.00 53 1020.1
20200406154834 12 127 1.6 6.4 0.00 0.00 0.00 53 1020.1
20200406154324 12 85 0.0 8.0 0.00 0.00 0.00 55 1020.1
20200406153832 12 312 1.6 11.3 0.00 0.00 0.00 56 1020.2
20200406153320 12 66 1.6 11.3 0.00 0.00 0.00 58 1020.2
20200406152834 12 72 0.0 0.0 0.00 0.00 0.00 61 1020.2
20200406152322 11 72 0.0 0.0 0.00 0.00 0.00 63 1020.3
20200406151833 11 50 0.0 0.0 0.00 0.00 0.00 63 1020.3
20200406151321 11 41 0.0 11.3 0.00 0.00 0.00 64 1020.4
20200406150829 11 20 0.0 11.3 0.00 0.00 0.00 64 1020.4
20200406150338 11 346 0.0 4.8 0.00 0.00 0.00 66 1020.5
20200406145825 10 346 0.0 4.8 0.00 0.00 0.00 66 1020.5
20200406145332 10 10 0.0 8.0 0.00 0.00 0.00 66 1020.5
20200406144819 10 10 4.8 8.0 0.00 0.00 0.00 66 1020.5
20200406144331 10 54 0.0 4.8 0.00 0.00 0.00 68 1020.5
20200406143822 10 54 0.0 3.2 0.00 0.00 0.00 69 1020.4
20200406143331 9 72 0.0 3.2 0.00 0.00 0.00 70 1020.5
20200406142837 9 80 0.0 3.2 0.00 0.00 0.00 70 1020.5
20200406142326 8 108 0.0 0.0 0.00 0.00 0.00 71 1020.5
20200406141832 8 108 0.0 0.0 0.00 0.00 0.00 72 1020.5
20200406141319 8 108 0.0 9.7 0.00 0.00 0.00 74 1020.5
20200406140830 7 108 0.0 9.7 0.00 0.00 0.00 74 1020.6
20200406140318 7 128 0.0 11.3 0.00 0.00 0.00 74 1020.5
20200406135830 7 114 3.2 8.0 0.00 0.00 0.00 75 1020.6
20200406135320 7 106 1.6 11.3 0.00 0.00 0.00 76 1020.6
20200406134827 6 63 1.6 11.3 0.00 0.00 0.00 77 1020.6
20200406134336 6 70 1.6 9.7 0.00 0.00 0.00 77 1020.7
20200406133823 6 73 3.2 8.0 0.00 0.00 0.00 78 1020.7
20200406133332 6 61 1.6 11.3 0.00 0.00 0.00 78 1020.7
20200406132822 6 52 6.4 11.3 0.00 0.00 0.00 78 1020.7
20200406132331 6 87 0.0 12.9 0.00 0.00 0.00 79 1020.6
20200406131837 6 84 6.4 12.9 0.00 0.00 0.00 80 1020.8
20200406131330 5 69 0.0 3.2 0.00 0.00 0.00 82 1020.8
20200406130837 5 69 0.0 4.8 0.00 0.00 0.00 83 1021.0
20200406130325 5 58 0.0 4.8 0.00 0.00 0.00 84 1021.0
20200406125835 5 62 0.0 0.0 0.00 0.00 0.00 85 1020.9
20200406125324 4 62 0.0 6.4 0.00 0.00 0.00 91 1021.0
20200406124832 4 62 0.0 6.4 0.00 0.00 0.00 87 1020.9
20200406124324 3 53 0.0 4.8 0.00 0.00 0.00 88 1020.9
20200406123831 3 57 0.0 6.4 0.00 0.00 0.00 89 1020.9
20200406123323 3 57 0.0 6.4 0.00 0.00 0.00 90 1020.8
20200406122833 3 98 0.0 3.2 0.00 0.00 0.00 90 1020.7
20200406122321 3 102 0.0 0.0 0.00 0.00 0.00 91 1020.7
20200406121826 2 102 0.0 1.6 0.00 0.00 0.00 91 1020.7
20200406121316 2 102 0.0 1.6 0.00 0.00 0.00 91 1020.6
20200406120826 2 102 0.0 0.0 0.00 0.00 0.00 91 1020.5
20200406120335 2 102 0.0 0.0 0.00 0.00 0.00 90 1020.5
20200406115822 2 102 0.0 0.0 0.00 0.00 0.00 90 1020.3
20200406115330 2 102 0.0 0.0 0.00 0.00 0.00 90 1020.3
20200406114820 2 102 0.0 0.0 0.00 0.00 0.00 90 1020.2
20200406114333 2 102 0.0 0.0 0.00 0.00 0.00 90 1020.2
20200406113821 2 102 0.0 0.0 0.00 0.00 0.00 90 1020.0
20200406113330 2 102 0.0 0.0 0.00 0.00 0.00 89 1019.8
20200406112837 2 102 0.0 0.0 0.00 0.00 0.00 89 1019.7
20200406112327 2 102 0.0 0.0 0.00 0.00 0.00 89 1019.7
20200406111832 2 102 0.0 0.0 0.00 0.00 0.00 89 1019.7
20200406111322 2 102 0.0 0.0 0.00 0.00 0.00 89 1019.6
20200406110828 2 102 0.0 0.0 0.00 0.00 0.00 89 1019.6
20200406110316 2 102 0.0 0.0 0.00 0.00 0.00 89 1019.6
20200406105831 2 72 0.0 0.0 0.00 0.00 0.00 88 1019.6
20200406105338 2 72 0.0 0.0 0.00 0.00 0.00 88 1019.6
20200406104825 2 72 0.0 0.0 0.00 0.00 0.00 88 1019.7
20200406104333 2 72 0.0 0.0 0.00 0.00 0.00 88 1019.6
20200406103820 2 72 0.0 0.0 0.00 0.00 0.00 88 1019.4
20200406103332 2 72 0.0 0.0 0.00 0.00 0.00 88 1019.3
20200406102838 2 72 0.0 0.0 0.00 0.00 0.00 88 1019.3
20200406102326 2 72 0.0 0.0 0.00 0.00 0.00 88 1019.3
20200406101836 2 72 0.0 0.0 0.00 0.00 0.00 88 1019.3
20200406101328 3 72 0.0 0.0 0.00 0.00 0.00 88 1019.3
20200406100835 3 72 0.0 0.0 0.00 0.00 0.00 88 1019.2
20200406100324 3 72 0.0 0.0 0.00 0.00 0.00 88 1019.3
20200406095833 3 72 0.0 0.0 0.00 0.00 0.00 88 1019.2
20200406095323 3 72 0.0 0.0 0.00 0.00 0.00 88 1019.3
20200406094829 3 72 0.0 0.0 0.00 0.00 0.00 88 1019.3
20200406094322 3 72 0.0 0.0 0.00 0.00 0.00 88 1019.4
20200406093829 3 72 0.0 0.0 0.00 0.00 0.00 88 1019.3
20200406093338 3 72 0.0 0.0 0.00 0.00 0.00 88 1019.4
20200406092830 3 72 0.0 0.0 0.00 0.00 0.00 88 1019.4
20200406091336 3 72 0.0 0.0 0.00 0.00 0.00 88 1019.4
20200406090823 3 72 0.0 0.0 0.00 0.00 0.00 88 1019.3
20200406090331 3 72 0.0 0.0 0.00 0.00 0.00 88 1019.2
20200406085816 3 72 0.0 0.0 0.00 0.00 0.00 88 1019.2
20200406085328 3 72 0.0 0.0 0.00 0.00 0.00 88 1019.1
20200406084835 3 72 0.0 4.8 0.00 0.00 0.00 88 1019.1
20200406084326 3 72 0.0 4.8 0.00 0.00 0.00 88 1019.1
20200406083834 3 72 0.0 0.0 0.00 0.00 0.00 88 1019.1
20200406083323 3 72 0.0 0.0 0.00 0.00 0.00 88 1019.2
20200406082832 3 72 0.0 0.0 0.00 0.00 0.00 88 1019.2
20200406082324 3 72 0.0 0.0 0.00 0.00 0.00 87 1019.3
20200406081830 3 72 0.0 0.0 0.00 0.00 0.00 87 1019.4
20200406081320 3 72 0.0 0.0 0.00 0.00 0.00 87 1019.4
20200406080831 4 72 0.0 0.0 0.00 0.00 0.00 87 1019.4
20200406080319 4 72 0.0 0.0 0.00 0.00 0.00 87 1019.5
20200406075830 4 72 0.0 0.0 0.00 0.00 0.00 87 1019.5
20200406075338 4 72 0.0 0.0 0.00 0.00 0.00 87 1019.6
20200406074825 4 72 0.0 0.0 0.00 0.00 0.00 87 1019.6
20200406074334 4 72 0.0 0.0 0.00 0.00 0.00 92 1019.4
20200406073820 4 72 0.0 0.0 0.00 0.00 0.00 87 1019.4
20200406073328 4 72 0.0 0.0 0.00 0.00 0.00 87 1019.2
20200406072835 4 72 0.0 0.0 0.00 0.00 0.00 87 1019.3
20200406072324 4 72 0.0 0.0 0.00 0.00 0.00 87 1019.3
20200406071831 4 72 0.0 0.0 0.00 0.00 0.00 87 1019.5
20200406071324 5 72 0.0 0.0 0.00 0.00 0.00 87 1019.4
20200406070831 5 72 0.0 0.0 0.00 0.00 0.00 87 1019.4
20200406070320 5 72 0.0 0.0 0.00 0.00 0.00 87 1019.4
20200406065828 5 72 0.0 0.0 0.00 0.00 0.00 86 1019.5
20200406065316 5 72 0.0 0.0 0.00 0.00 0.00 86 1019.5
20200406064826 5 72 0.0 0.0 0.00 0.00 0.00 86 1019.5
20200406064338 5 72 0.0 0.0 0.00 0.00 0.00 86 1019.5
20200406063825 5 72 0.0 0.0 0.00 0.00 0.00 86 1019.6
20200406063333 5 72 0.0 0.0 0.00 0.00 0.00 86 1019.6
20200406062827 5 72 0.0 0.0 0.00 0.00 0.00 86 1019.5
20200406062338 5 72 0.0 0.0 0.00 0.00 0.00 85 1019.4
20200406061823 5 72 0.0 0.0 0.00 0.00 0.00 85 1019.4
20200406061332 5 72 0.0 4.8 0.00 0.00 0.00 85 1019.4
20200406060818 5 72 0.0 6.4 0.00 0.00 0.00 85 1019.4
20200406060426 5 61 0.0 4.8 0.00 0.00 0.00 85 1019.4
20200406055833 5 64 0.0 4.8 0.00 0.00 0.00 85 1019.4
20200406055325 5 33 0.0 8.0 0.00 0.00 0.00 85 1019.5
20200406054832 5 26 0.0 8.0 0.00 0.00 0.00 85 1019.5
20200406054325 5 27 0.0 4.8 0.00 0.00 0.00 85 1019.5
20200406053835 6 34 0.0 4.8 0.00 0.00 0.00 84 1019.5
20200406053323 6 54 0.0 4.8 0.00 0.00 0.00 84 1019.5
20200406052829 6 66 0.0 3.2 0.00 0.00 0.00 84 1019.5
20200406052320 6 66 0.0 3.2 0.00 0.00 0.00 84 1019.4
20200406051828 6 56 0.0 0.0 0.00 0.00 0.00 84 1019.5
20200406051321 6 44 0.0 0.0 0.00 0.00 0.00 84 1019.5
20200406050828 6 47 0.0 8.0 0.00 0.00 0.00 84 1019.5
20200406050337 6 47 1.6 8.0 0.00 0.00 0.00 84 1019.6
20200406045828 6 26 1.6 6.4 0.00 0.00 0.00 83 1019.6
20200406045335 6 27 1.6 6.4 0.00 0.00 0.00 83 1019.7
20200406044823 6 41 0.0 8.0 0.00 0.00 0.00 83 1019.7
20200406044332 6 42 3.2 8.0 0.00 0.00 0.00 83 1019.6